PROXIMA I

Last updated on Sat May 18 2024 00:03:36 GMT+0000 (Coordinated Universal Time)

1 43694U 18088E 24138.33244866 .04475738 -14623-5 10554-2 0 9992 2 43694 84.9894 193.8907 0010448 257.4543 102.5588 16.29626391307918

Satellite not in orbit